(162788) = 2000 YM133 = 2000 YR31

Discovered at Kitt Peak on 2000-12-31 by Spacewatch.

Orbit

Orbit type: Main Belt

Note: WebGL enabled browser required.

epoch2023-02-25.0
epoch JD2460000.5
perihelion date2020-03-08.54377
perihelion JD2458917.04377
argument of perihelion (°)331.15192
ascending node (°)310.90987
inclination (°)5.43246
eccentricity0.0557393
perihelion distance (AU)2.5032009
Tisserand w.r.t. Jupiter3.4
ΔV w.r.t. Earth (km/sec)10.0
semimajor axis (AU)2.6509638
mean anomaly (°)247.40560
mean daily motion (°/day)0.22834850
aphelion distance (AU)2.799
period (years)4.32
P-vector [x]0.21060420
P-vector [y]-0.87775478
P-vector [z]-0.43033988
Q-vector [x]0.97494964
Q-vector [y]0.15637408
Q-vector [z]0.15817821
absolute magnitude16.41
phase slope0.15
uncertainty0
referenceMPO 745323
observations used472
oppositions17
arc length (days)22885
first opposition used1960
last opposition used2023
residual rms (arc-secs)0.67
perturbers coarse indicatorM-v
perturbers precise indicator003Ek
first observation date used1960-09-24.0
last observation date used2023-05-22.0
computer nameMPCLINUX
JD of orbit computation2456819.501640
perihelion JD uncertainty (days)2.4986E-04
argument of perihelion uncertainty (°)6.1999E-05
ascending node uncertainty (°)3.1982E-05
inclination uncertainty (°)3.3573E-06
eccentricity uncertainty 4.3090E-08
perihelion distance uncertainty (AU)1.1463E-07
Minimum Orbit Intersection Distances (in AU)
for orbit epoch: 2460000.5, reference: E2023-KB5
Mercury2.04195
Venus1.77573
Earth1.48767
Mars1.01863
Jupiter2.29421
Saturn6.27621
Uranus15.7234
Neptune27.1723

Observations

482 total observations over interval: 1960 09 24.42500 – 2023 05 22.192154
These data are available for download (format description).

Date (UT) J2000 RA J2000 Dec Magn Location Ref
1960 09 24.42500 00 42 16.67 +12 31 30.0 20.7   675 – Palomar Mountain MPS 285490
1960 09 24.45000 00 42 15.41 +12 31 25.9 20.7   675 – Palomar Mountain MPS 285490
1960 09 28.42778 00 38 45.45 +12 16 12.9 21.1   675 – Palomar Mountain MPS 285490
1960 09 28.45139 00 38 44.13 +12 16 06.6 21.1   675 – Palomar Mountain MPS 285490
1997 03 09.29743 10 12 24.04 +07 00 46.9 20.1 V 691 – Steward Observatory, Kitt Peak-Spacewatch MPS 90416
1997 03 09.31859 10 12 22.91 +07 00 50.8 20.1 V 691 – Steward Observatory, Kitt Peak-Spacewatch MPS 90416
1997 03 09.33959 10 12 21.85 +07 00 55.2 20.3 V 691 – Steward Observatory, Kitt Peak-Spacewatch MPS 90416
2000 12 31.29119 08 51 14.53 +19 17 42.6 21.2 V 691 – Steward Observatory, Kitt Peak-Spacewatch MPS 25534
2000 12 31.29575 08 51 14.34 +19 17 43.0 21.3 V 691 – Steward Observatory, Kitt Peak-Spacewatch MPS 25534
2000 12 31.30019 08 51 14.10 +19 17 43.7 21.4 V 691 – Steward Observatory, Kitt Peak-Spacewatch MPS 25534
2000 12 31.49338 08 51 05.92 +19 17 58.3 21.3 V 691 – Steward Observatory, Kitt Peak-Spacewatch MPS 24161
2000 12 31.51572 08 51 04.96 +19 18 00.3 21.0 V 691 – Steward Observatory, Kitt Peak-Spacewatch MPS 24161
2000 12 31.53818 08 51 04.02 +19 18 01.5 21.8 V 691 – Steward Observatory, Kitt Peak-Spacewatch MPS 24161
2001 01 01.34370 08 50 30.71 +19 19 09.0 20.8 V 691 – Steward Observatory, Kitt Peak-Spacewatch MPS 24161
2001 01 01.34823 08 50 30.48 +19 19 09.4 21.0 V 691 – Steward Observatory, Kitt Peak-Spacewatch MPS 24161
2001 01 01.35778 08 50 30.09 +19 19 10.1 21.3 V 691 – Steward Observatory, Kitt Peak-Spacewatch MPS 24161
2001 01 21.31112 08 32 51.55 +19 53 20.9 19.5   704 – Lincoln Laboratory ETS, New Mexico MPS 25393
2001 01 21.32632 08 32 50.67 +19 53 22.3 19.9   704 – Lincoln Laboratory ETS, New Mexico MPS 25393
2001 01 21.34147 08 32 49.70 +19 53 24.7 19.7   704 – Lincoln Laboratory ETS, New Mexico MPS 25393
2001 02 03.24334 08 19 53.55 +20 13 47.5 20.5 V 691 – Steward Observatory, Kitt Peak-Spacewatch MPS 27892
2001 02 03.26610 08 19 52.18 +20 13 49.5 20.8 V 691 – Steward Observatory, Kitt Peak-Spacewatch MPS 27892
2001 02 03.28876 08 19 50.83 +20 13 51.3 20.5 V 691 – Steward Observatory, Kitt Peak-Spacewatch MPS 27892
2001 02 19.19172 08 06 24.74 +20 26 21.4 21.1 V 691 – Steward Observatory, Kitt Peak-Spacewatch MPS 27892
2001 02 19.23830 08 06 22.73 +20 26 22.2 20.9 V 691 – Steward Observatory, Kitt Peak-Spacewatch MPS 27892
2001 02 19.27471 08 06 21.18 +20 26 22.6 21.1 V 691 – Steward Observatory, Kitt Peak-Spacewatch MPS 27892
2003 09 17.32332 23 27 53.78 +03 03 55.8 19.9 V 691 – Steward Observatory, Kitt Peak-Spacewatch MPS 85122
2003 09 17.35023 23 27 52.31 +03 03 49.3 20.0 V 691 – Steward Observatory, Kitt Peak-Spacewatch MPS 85122
2003 09 17.37794 23 27 50.80 +03 03 42.3 20.1 V 691 – Steward Observatory, Kitt Peak-Spacewatch MPS 85122
2003 09 18.23211 23 27 06.00 +03 00 12.9 19.9 V 291 – LPL/Spacewatch II MPS 90416
2003 09 18.23599 23 27 05.79 +03 00 12.0 19.7 V 291 – LPL/Spacewatch II MPS 90416
2003 09 18.23977 23 27 05.59 +03 00 11.2 19.7 V 291 – LPL/Spacewatch II MPS 90416
2003 09 22.22984 23 23 37.79 +02 43 27.3 19.5 R 699 – Lowell Observatory-LONEOS MPS 85122
2003 09 22.24980 23 23 36.78 +02 43 21.9   699 – Lowell Observatory-LONEOS MPS 85122
2003 09 22.26979 23 23 35.66 +02 43 17.1   699 – Lowell Observatory-LONEOS MPS 85122
2003 09 22.28979 23 23 34.63 +02 43 12.1   699 – Lowell Observatory-LONEOS MPS 85122
2003 09 30.20167 23 17 08.94 +02 09 15.9 20.2 V 691 – Steward Observatory, Kitt Peak-Spacewatch MPS 86132
2003 09 30.22778 23 17 07.70 +02 09 09.3 20.2 V 691 – Steward Observatory, Kitt Peak-Spacewatch MPS 86132
2003 09 30.25416 23 17 06.45 +02 09 02.5 20.3 V 691 – Steward Observatory, Kitt Peak-Spacewatch MPS 86132
2003 10 17.195050 23 07 01.978 +01 05 35.66 20.49 V 645 – Apache Point-Sloan Digital Sky Survey MPS 136875
2003 10 17.198522 23 07 01.887 +01 05 35.07 21.35   645 – Apache Point-Sloan Digital Sky Survey MPS 136875
2003 10 18.134210 23 06 39.924 +01 02 47.92 20.55 V 645 – Apache Point-Sloan Digital Sky Survey MPS 136875
2003 10 18.137682 23 06 39.836 +01 02 47.29 21.45   645 – Apache Point-Sloan Digital Sky Survey MPS 136875
2003 10 19.182400 23 06 16.667 +00 59 47.62 20.55 V 645 – Apache Point-Sloan Digital Sky Survey MPS 136875
2003 10 19.185872 23 06 16.589 +00 59 47.03 21.47   645 – Apache Point-Sloan Digital Sky Survey MPS 136875
2003 10 24.169600 23 04 49.435 +00 47 14.80 20.74 V 645 – Apache Point-Sloan Digital Sky Survey MPS 136875
2003 10 24.173072 23 04 49.381 +00 47 14.37 21.66   645 – Apache Point-Sloan Digital Sky Survey MPS 136875
2003 11 16.122760 23 06 22.817 +00 32 24.09 21.05 V 645 – Apache Point-Sloan Digital Sky Survey MPS 136875
2003 11 16.126232 23 06 22.879 +00 32 24.29 21.80   645 – Apache Point-Sloan Digital Sky Survey MPS 136875
2003 11 20.103590 23 07 56.687 +00 37 15.37 21.27 V 645 – Apache Point-Sloan Digital Sky Survey MPS 136875
2003 11 20.107062 23 07 56.771 +00 37 15.72 22.12   645 – Apache Point-Sloan Digital Sky Survey MPS 136875
2004 12 10.28671 06 41 12.17 +28 17 42.4 20.3 V 691 – Steward Observatory, Kitt Peak-Spacewatch MPS 121131
2004 12 10.31913 06 41 10.30 +28 17 43.1 20.7 V 691 – Steward Observatory, Kitt Peak-Spacewatch MPS 121131
2004 12 10.34522 06 41 08.82 +28 17 43.8 20.7 V 691 – Steward Observatory, Kitt Peak-Spacewatch MPS 121131
2004 12 14.29024 06 37 23.51 +28 18 29.0 20.2 V 691 – Steward Observatory, Kitt Peak-Spacewatch MPS 121653
2004 12 14.31566 06 37 21.97 +28 18 29.2 20.1 V 691 – Steward Observatory, Kitt Peak-Spacewatch MPS 121653
2004 12 14.34111 06 37 20.42 +28 18 29.5 20.1 V 691 – Steward Observatory, Kitt Peak-Spacewatch MPS 121653
2004 12 19.24421 06 32 21.03 +28 18 01.1 20.3 V 691 – Steward Observatory, Kitt Peak-Spacewatch MPS 122646
2004 12 19.26970 06 32 19.41 +28 18 00.8 20.4 V 691 – Steward Observatory, Kitt Peak-Spacewatch MPS 122646
2004 12 19.29488 06 32 17.77 +28 18 00.6 20.3 V 691 – Steward Observatory, Kitt Peak-Spacewatch MPS 122646
2007 08 09.21257 21 14 11.32 -15 09 34.4 19.2   704 – Lincoln Laboratory ETS, New Mexico MPS 212484
2007 08 09.22443 21 14 10.68 -15 09 34.7 19.4   704 – Lincoln Laboratory ETS, New Mexico MPS 212484
2007 08 09.24813 21 14 09.33 -15 09 36.8 19.5   704 – Lincoln Laboratory ETS, New Mexico MPS 212484
2007 08 09.25995 21 14 08.51 -15 09 38.6 19.6   704 – Lincoln Laboratory ETS, New Mexico MPS 212484
2007 09 11.18775 20 49 40.40 -15 45 34.3 20.2 V G96 – Mt. Lemmon Survey MPS 214996
2007 09 11.20198 20 49 40.04 -15 45 33.0 19.4 V G96 – Mt. Lemmon Survey MPS 214996
2007 09 11.20914 20 49 39.90 -15 45 34.0 19.9 V G96 – Mt. Lemmon Survey MPS 214996
2008 11 08.37804 04 26 34.32 +29 29 44.3 20.0 V 691 – Steward Observatory, Kitt Peak-Spacewatch MPS 265100
2008 11 08.39571 04 26 33.36 +29 29 43.8 20.3 V 691 – Steward Observatory, Kitt Peak-Spacewatch MPS 265100
2008 11 08.41338 04 26 32.42 +29 29 42.7 20.2 V 691 – Steward Observatory, Kitt Peak-Spacewatch MPS 265100
2008 12 04.24854 04 00 41.47 +28 18 48.8 19.9 V G96 – Mt. Lemmon Survey MPS 268648
2008 12 04.25704 04 00 40.93 +28 18 46.3 19.9 V G96 – Mt. Lemmon Survey MPS 268648
2008 12 04.26544 04 00 40.42 +28 18 44.4 19.9 V G96 – Mt. Lemmon Survey MPS 268648
2008 12 05.19264 03 59 45.63 +28 14 55.6 19.8 V G96 – Mt. Lemmon Survey MPS 268648
2008 12 05.21161 03 59 44.48 +28 14 51.0 19.8 V G96 – Mt. Lemmon Survey MPS 268648
2008 12 05.22111 03 59 43.87 +28 14 48.5 20.1 V G96 – Mt. Lemmon Survey MPS 268648
2010 02 17.21296 10 52 38.21 +03 03 08.1 20.0 V 691 – Steward Observatory, Kitt Peak-Spacewatch MPS 316238
2010 02 17.23057 10 52 37.29 +03 03 11.4 20.2 V 691 – Steward Observatory, Kitt Peak-Spacewatch MPS 316238
2010 02 17.24820 10 52 36.38 +03 03 14.4 20.1 V 691 – Steward Observatory, Kitt Peak-Spacewatch MPS 316238
2010 02 17.27976 10 52 34.71 +03 03 21.5 19.9   704 – Lincoln Laboratory ETS, New Mexico MPS 316238
2010 02 17.30471 10 52 33.51 +03 03 24.2 20.6   704 – Lincoln Laboratory ETS, New Mexico MPS 316238
2010 02 17.31696 10 52 32.89 +03 03 26.2 20.3   704 – Lincoln Laboratory ETS, New Mexico MPS 316238
2010 02 20.377029 10 49 54.669 +03 12 36.51 20.14 r F51 – Pan-STARRS 1, Haleakala MPS 320421
